Regional Weather Roundup
Issued by NWS

Home | Current Version | Previous Version | Graphics & Text | Print | Product List | Glossary Off
Versions: 1 2 3 4 5 6 7 8 9 10 11 12 13 14 15 16 17 18 19 20 21 22 23 24 25 26 27 28 29 30 31 32 33 34 35 36 37 38 39 40 41 42 43 44 45 46 47 48 49 50

000
ASUS43 KDMX 300107
RWRIA

WEATHER ROUNDUP FOR IOWA
NATIONAL WEATHER SERVICE DES MOINES IA
700 PM CST THU JAN 29 2015

NOTE: "FAIR" INDICATES FEW OR NO CLOUDS BELOW 12,000 FEET WITH NO
SIGNIFICANT WEATHER AND/OR OBSTRUCTIONS TO VISIBILITY.

* - THESE STATIONS ARE NOT NWS STATIONS...THUS NOT UNDER NWS
QUALITY CONTROL.  THEY ALSO DO NOT REPORT WEATHER SUCH
AS PRECIPITATION OR FOG.

IAZ001>003-012>014-020>022-031>034-043>046-300200-
   NORTHWEST IOWA

CITY           SKY/WX    TMP DP  RH WIND       PRES   REMARKS
CARROLL *      CLOUDY    30  23  74 NW21G26   30.47R WCI  17
CHEROKEE *     CLOUDY    28  23  80 NW14      30.49R WCI  17
DENISON *      CLOUDY    30  23  74 N12       30.47R WCI  21
LE MARS *      CLOUDY    28  21  74 N16       30.52R WCI  17
ORANGE CITY *  CLOUDY    28  19  69 N12G17    30.50R WCI  18
SHELDON *      CLOUDY    27  21  80 N17G23    30.47R WCI  14
SIOUX CITY     CLOUDY    32  22  66 N20       30.51R WCI  20
SPENCER        CLOUDY    26  18  71 N20       30.48R WCI  12
STORM LAKE *   CLOUDY    28  21  74 N18       30.47R WCI  16
$$

IAZ055>058-069>071-079>083-090>094-300200-
   SOUTHWEST IOWA

CITY           SKY/WX    TMP DP  RH WIND       PRES   REMARKS
ATLANTIC *     CLOUDY    34  25  69 N9        30.47R WCI  26
AUDUBON *      CLOUDY    30  23  74 NW17      30.47R WCI  18
CLARINDA *     CLOUDY    34  23  64 N8        30.49S WCI  27
COUNCIL BLFS * CLOUDY    32  25  74 N7        30.47R WCI  26
CRESTON *      CLOUDY    32  25  74 NW18G26   30.45R WCI  20
HARLAN  *      CLOUDY    32  27  80 NW14      30.51R WCI  22
LAMONI         CLOUDY    32  23  69 NW14G21   30.44R WCI  22
RED OAK *      CLOUDY    36  25  64 NW14      30.49R WCI  27
SHENANDOAH *   CLOUDY    34  25  69 N7        30.51R WCI  28
$$

IAZ047>049-059>061-072>074-084-300200-
   CENTRAL IOWA

CITY           SKY/WX    TMP DP  RH WIND       PRES   REMARKS
AMES           CLOUDY    29  20  69 N18G28    30.45R WCI  16
ANKENY *       CLOUDY    30  21  69 NW18G24   30.45R WCI  18
CHARITON *     CLOUDY    32  23  69 NW24      30.43R WCI  19
DES MOINES     CLOUDY    32  21  64 N14G21    30.45R WCI  22
GRINNELL*      CLOUDY    28  23  80 NW22G28   30.41R WCI  15
KNOXVILLE *    CLOUDY    30  21  69 NW22G28   30.42R WCI  17
MARSHALLTOWN   MOCLDY    27  20  75 NW17      30.41R WCI  14
PELLA *        MOCLDY    30  23  74 NW18G30   30.44R WCI  18
PERRY *          N/A     32  25  74 N16G23    30.46R WCI  21
$$

IAZ004>006-015-016-023>025-035-036-300200-
   NORTH CENTRAL IOWA

CITY           SKY/WX    TMP DP  RH WIND       PRES   REMARKS
ALGONA *       CLEAR     25  19  80 NW16G26   30.46R WCI  12
CLARION *      CLOUDY    25  21  86 NW24G31   30.44R WCI   9
ESTHERVILLE    CLEAR     22  16  78 NW20      30.46R WCI   7
FORT DODGE *   CLOUDY    27  19  74 NW12G24   30.46R WCI  16
MASON CITY     CLOUDY    24  17  74 NW24G31   30.43R WCI   8
FOREST CITY *  CLOUDY    25  18  74 NW21      30.43R WCI  10
IOWA FALLS *   CLOUDY    27  21  80 NW24G31   30.43R WCI  12
$$

IAZ007>011-017>019-026>030-037>042-050>054-066-300200-
   NORTHEAST IOWA

CITY           SKY/WX    TMP DP  RH WIND       PRES   REMARKS
CEDAR RAPIDS   CLOUDY    30  21  69 NW23G35   30.34R WCI  17
CHARLES CITY * CLOUDY    27  19  74 NW21G29   30.39R WCI  13
CLINTON *      CLOUDY    34  23  64 NW14      30.31R WCI  24
DECORAH *      CLOUDY    27  18  69 NW16G23   30.33R WCI  14
DUBUQUE        CLOUDY    30  20  66 NW24G32   30.28R WCI  16
MONTICELLO *   CLOUDY    32  23  69 NW17G29   30.32R WCI  21
OELWEIN *      CLOUDY    27  19  74 NW26G37   30.36R WCI  11
WATERLOO       CLOUDY    27  18  69 NW23G31   30.38R WCI  12
$$

IAZ064-065-067-068-078-300200-
   EAST CENTRAL IOWA

CITY           SKY/WX    TMP DP  RH WIND       PRES   REMARKS
DAVENPORT      CLOUDY    32  22  66 NW21G28   30.30R WCI  20
IOWA CITY      CLOUDY    33  24  69 NW15G22   30.37R WCI  23
MT. PLEASANT * CLOUDY    34  23  64 NW17G23   30.37R WCI  23
MUSCATINE *    CLOUDY    34  23  64 NW20G26   30.36R WCI  22
QUAD CITIES    CLOUDY    34  24  67 NW17G25   30.30R WCI  23
$$

IAZ062-063-075>077-085>089-095>099-300200-
   SOUTHEAST IOWA

CITY           SKY/WX    TMP DP  RH WIND       PRES   REMARKS
BURLINGTON     CLOUDY    34  25  69 NW16G31   30.35R WCI  24
FAIRFIELD *    CLOUDY    32  23  69 NW23      30.38R WCI  19
FORT MADISON * CLOUDY    34  27  75 NW21      30.37R WCI  22
KEOKUK *       CLOUDY    36  27  69 NW15      30.37R WCI  26
OSKALOOSA *    CLOUDY    30  23  74 N22G31    30.41R WCI  17
CENTERVILLE *  CLOUDY    32  23  69 NW18      30.43R WCI  20
OTTUMWA        CLOUDY    31  21  66 NW22G32   30.41R WCI  18
WASHINGTON *   CLOUDY    34  27  75 NW21G28   30.37R WCI  22
$$

ABBREVIATIONS USED IN REMARKS
   TC - TEMPERATURES IN CELSIUS
  WCI - WIND CHILL INDEX
   HX - HEAT INDEX
  VSB - VISIBILITY
$$




USA.gov is the U.S. government's official web portal to all federal, state and local government web resources and services.